Simultaneous Nadir Overpasses (SNOs) Predictions

Prediction of SNOs between LANDSAT-8 and NOAA-19 Satellite Orbit:

Table of predicted SNOs for the next 14.0 days since TLE Epoch: 3/19/2022
Index Date (LANDSAT-8) Time (LANDSAT-8) Lat,Lon (LANDSAT-8) SZA (LANDSAT-8 ) Date (NOAA-19) Time (NOAA-19) Lat,Lon (NOAA-19) SZA (NOAA-19 ) Distance(km) Time Diff (sec)
1 03/19/2022 15:45:59 -80.74, 158.03 97.45 03/19/2022 15:45:54 -80.73, 157.99 97.47 2.11 5
2 03/21/2022 21:19:41 80.74,-105.41 81.69 03/21/2022 21:18:55 80.74,-105.61 81.65 3.47 46
3 03/21/2022 22:09:08 -80.74, 62.20 98.33 03/21/2022 22:09:55 -80.73, 62.09 98.34 2.66 47
4 03/24/2022 03:42:49 80.74, 158.69 80.80 03/24/2022 03:42:54 80.74, 158.60 80.79 1.62 5
5 03/26/2022 09:16:31 -80.75,-104.54 100.04 03/26/2022 09:15:57 -80.74,-104.70 100.07 3.14 34
6 03/26/2022 10:05:58 80.72, 62.75 79.90 03/26/2022 10:06:54 80.73, 62.78 79.93 1.27 56
7 03/28/2022 15:39:40 -80.74, 159.49 100.93 03/28/2022 15:39:57 -80.73, 159.65 100.92 2.92 17
8 03/30/2022 21:13:21 80.74,-103.88 78.23 03/30/2022 21:12:55 80.74,-103.82 78.23 1.02 26



Historial Predications of SNOs between LANDSAT-8 and NOAA-19
